[[{"header":{"parameterUnit":"m.s-1","parameterCategory":1,"la1":30.2991,"la2":30.254,"lo1":-89.0895,"lo2":-89.0444,"dy":0.0017,"dx":0.0017,"nx":28,"ny":28,"refTime":"2024-10-14T21:00:00:Z","depth":0,"parameterNumber":2,"parameterNumberName":"U-component_of_WINDS"},"data":[0,0,0,0,0,0,0,0,0,0,0,0,0,0,0,0,0,0,0,0,0,0,0,0,0,0,0,0,0,0,0,0,0,0,0,0,0,0,0,0,0,0,0,0,0,0,0,0,0,0,0,0,0,0,0,0,0,0,-3.5153,-3.5154,0,-3.5234,-3.5234,-3.5235,-3.5157,-3.5154,-3.5151,-3.5148,-3.5232,-3.5237,-3.5242,0,0,0,0,0,0,0,0,0,0,0,0,0,-3.4934,-3.4938,-3.5153,-3.5154,-3.5155,-3.5233,-3.5235,-3.5236,-3.5158,-3.5154,-3.515,-3.5147,-3.523,-3.5236,-3.5242,0,0,0,0,0,0,0,0,0,0,0,0,0,-3.5023,-3.4939,-3.5153,-3.5126,-3.5124,-3.5233,-3.5235,-3.5236,-3.5159,-3.5154,-3.5149,-3.5145,-3.5228,-3.5236,-3.5243,-3.5383,0,0,-3.5267,-3.527,0,0,0,0,0,0,0,0,-3.5018,-3.5031,-3.5129,-3.5128,-3.5126,-3.5181,-3.5188,-3.5285,-3.516,-3.5146,-3.5148,-3.5143,-3.5219,-3.5227,-3.5252,-3.5387,-3.5391,-3.5267,-3.5272,-3.5275,-3.5277,0,0,0,0,0,0,0,-3.5012,-3.5027,-3.5185,-3.513,-3.5129,-3.511,-3.5118,-3.5206,-3.5207,-3.5147,-3.5141,-3.5152,-3.5217,-3.5245,-3.5254,-3.5392,-3.5267,-3.5274,-3.5279,-3.5282,-3.5646,-3.5651,0,0,0,0,0,0,-3.5009,-3.5023,-3.5182,-3.5187,-3.506,-3.5118,-3.5126,-3.5168,-3.5206,-3.5207,-3.5156,-3.5148,-3.5234,-3.5245,-3.5256,-3.5423,-3.5275,-3.5282,-3.5287,-3.5641,-3.5647,-3.5653,0,0,0,0,0,0,-3.5004,-3.5024,-3.5179,-3.5104,-3.5122,-3.5126,-3.5174,-3.5172,-3.52,-3.5213,-3.5213,-3.5184,-3.5231,-3.5245,-3.5352,-3.5425,-3.5286,-3.5293,-3.5635,-3.5643,-3.565,-3.5759,0,0,0,0,0,0,-3.4998,-3.5022,-3.5076,-3.5105,-3.5126,-3.5274,-3.5178,-3.5177,-3.5213,-3.5204,-3.5239,-3.5241,-3.5228,-3.5341,-3.536,-3.5433,-3.5299,-3.5629,-3.5639,-3.5648,-3.5749,-3.5769,-3.5786,0,0,0,0,0,-3.4991,-3.5103,-3.5079,-3.5099,-3.5193,-3.5279,-3.5291,-3.5274,-3.5219,-3.5273,-3.5281,-3.524,-3.5414,-3.5353,-3.5373,-3.545,-3.5624,-3.5636,-3.5647,-3.574,-3.5765,-3.5786,0,0,0,0,0,0,-3.5083,-3.5107,-3.508,-3.5205,-3.5241,-3.5265,-3.5333,-3.5301,-3.5352,-3.5341,-3.5318,-3.5327,-3.544,-3.5455,-3.5387,-3.5587,-3.551,-3.5526,-3.5574,-3.5598,-3.5616,-3.5611,-3.5305,0,0,0,0,0,-3.5118,-3.5185,-3.5202,-3.5311,-3.533,-3.5329,-3.5365,-3.5349,-3.5385,-3.5399,-3.5415,-3.5452,-3.5514,-3.5556,-3.5615,-3.5749,-3.5757,-3.5812,-3.5831,-3.5847,-3.5861,-3.5934,-3.5959,-3.569,-3.569,-3.569,0,0,-3.5191,-3.5212,-3.5256,-3.533,-3.5356,-3.5426,-3.5342,-3.542,-3.5472,-3.5411,-3.5513,-3.5526,-3.5565,-3.5687,-3.5741,-3.5703,-3.5937,-3.5861,-3.5873,-3.588,-3.5948,-3.5974,-3.5997,-3.5698,-3.5697,-3.5696,0,0,-3.536,-3.5382,-3.5476,-3.5503,-3.5542,-3.554,-3.5562,-3.5592,-3.5598,-3.57,-3.5656,-3.5717,-3.5826,-3.5856,-3.5885,-3.6065,-3.6029,-3.6084,-3.6184,-3.6255,-3.6277,-3.6295,-3.636,-3.6384,-3.6099,-3.6099,-3.6099,0,-3.5446,-3.555,-3.5528,-3.561,-3.5644,-3.5591,-3.5686,-3.5713,-3.577,-3.5795,-3.5751,-3.5886,-3.5908,-3.6036,-3.608,-3.6105,-3.6131,-3.6081,-3.6275,-3.6294,-3.6311,-3.6373,-3.6397,-3.6105,-3.6105,-3.6104,-3.6103,0,-3.5655,-3.5728,-3.5799,-3.5854,-3.5896,-3.5984,-3.5976,-3.6021,-3.6,-3.6003,-3.6108,-3.6132,-3.6195,-3.6224,-3.6205,-3.635,-3.6325,-3.6278,-3.62,-3.6343,-3.6401,-3.6425,-3.6115,-3.6113,-3.6111,-3.6109,0,0,-3.5886,-3.5928,-3.5954,-3.5979,-3.6017,-3.6074,-3.6159,-3.622,-3.6259,-3.6299,-3.6371,-3.6463,-3.6421,-3.6454,-3.6438,-3.65,-3.6642,-3.6446,-3.6447,-3.6483,-3.6803,-3.6839,-3.6867,-3.6617,-3.6622,-3.6625,-3.68,0,-3.6058,-3.6206,-3.6188,-3.633,-3.6397,-3.6347,-3.6422,-3.6454,-3.6458,-3.6516,-3.652,-3.6587,-3.6525,-3.6545,-3.6604,-3.6612,-3.6706,-3.6599,-3.6685,-3.6688,-3.6678,-3.6897,-3.6935,-3.71,-3.6823,-3.6827,-3.6829,0,-3.6278,-3.6326,-3.6475,-3.6503,-3.653,-3.6598,-3.6652,-3.6707,-3.6742,-3.6741,-3.6778,-3.6751,-3.6837,-3.6756,-3.6874,-3.6801,-3.6835,-3.6844,-3.685,-3.6859,-3.6769,-3.6913,-3.7151,-3.7177,-3.6864,-3.6862,-3.6859,0,-3.6434,-3.6535,-3.6637,-3.666,-3.6695,-3.6743,-3.676,-3.679,-3.6828,-3.6875,-3.6899,-3.6956,-3.6988,-3.7032,-3.7021,-3.6963,-3.7142,-3.706,-3.7144,-3.7145,-3.7186,-3.7184,-3.7435,-3.7205,-3.7205,-3.7204,-3.7204,0,-3.6628,-3.6722,-3.6708,-3.6771,-3.6874,-3.6852,-3.6954,-3.6965,-3.6992,-3.7056,-3.7016,-3.7077,-3.7058,-3.7118,-3.711,-3.7209,-3.7223,-3.7225,-3.7222,-3.723,-3.723,-3.7253,-3.7242,-3.7211,-3.7209,-3.7208,-3.7207,0,-3.6821,-3.6815,-3.6923,-3.6947,-3.6955,-3.703,-3.705,-3.711,-3.711,-3.7192,-3.721,-3.7211,-3.728,-3.7272,-3.735,-3.7344,-3.7468,-3.745,-3.7456,-3.7453,-3.7538,-3.7531,-3.7814,-3.785,-3.7596,-3.7598,-3.7601,0,-3.6946,-3.7016,-3.7048,-3.7088,-3.7108,-3.7173,-3.7211,-3.7192,-3.7233,-3.7278,-3.7332,-3.7397,-3.7448,-3.756,-3.7568,-3.7627,-3.7611,-3.7706,-3.762,-3.7626,-3.7614,-3.7611,-3.7618,-3.7724,-3.7727,-3.7729,-3.7731,0,-3.717,-3.7163,-3.7219,-3.7275,-3.7321,-3.7364,-3.7403,-3.7438,-3.7422,-3.7471,-3.754,-3.758,-3.7658,-3.7724,-3.7779,-3.7796,-3.7762,-3.7758,-3.7781,-3.7791,-3.7792,-3.7793,-3.7505,-3.7752,-3.775,-3.7749,-3.7747,-3.7747,-3.7333,-3.7393,-3.7425,-3.7489,-3.7516,-3.7553,-3.761,-3.7617,-3.7674,-3.7737,-3.7721,-3.78,-3.7833,-3.7904,-3.7926,-3.7988,-3.7953,-3.7986,-3.7995,-3.8004,-3.8014,-3.778,-3.7998,-3.7997,-3.7997,-3.7996,-3.7996,0,-3.7556,-3.7573,-3.7632,-3.7687,-3.7738,-3.7699,-3.774,-3.7785,-3.7855,-3.7888,-3.7938,-3.8019,-3.8081,-3.8094,-3.8154,-3.8201,-3.8187,-3.8217,-3.8214,-3.8219,-3.8041,-3.8016,-3.8228,-3.8228,-3.8228,-3.8228,-3.8227,-3.8227,-3.7678,-3.7778,-3.7775,-3.7888,-3.7905,-3.7982,-3.8008,-3.8042,-3.8068,-3.8159,-3.8211,-3.8218,-3.8243,-3.8305,-3.8361,-3.8362,-3.8387,-3.8425,-3.8421,-3.8255,-3.8232,-3.821,-3.8186,-3.843,-3.843,-3.8593,-3.8595,-3.8596]},{"header":{"parameterUnit":"m.s-1","parameterCategory":1,"la1":30.2991,"la2":30.254,"lo1":-89.0895,"lo2":-89.0444,"dy":0.0017,"dx":0.0017,"nx":28,"ny":28,"refTime":"2024-10-14T21:00:00:Z","depth":0,"parameterNumber":3,"parameterNumberName":"V-component_of_WINDS"},"data":[0,0,0,0,0,0,0,0,0,0,0,0,0,0,0,0,0,0,0,0,0,0,0,0,0,0,0,0,0,0,0,0,0,0,0,0,0,0,0,0,0,0,0,0,0,0,0,0,0,0,0,0,0,0,0,0,0,0,-9.7325,-9.7326,0,-9.7406,-9.7407,-9.7408,-9.7282,-9.7277,-9.7273,-9.7269,-9.7345,-9.7351,-9.7357,0,0,0,0,0,0,0,0,0,0,0,0,0,-9.7053,-9.7059,-9.7325,-9.7326,-9.7327,-9.7406,-9.7407,-9.7408,-9.7282,-9.7277,-9.7272,-9.7267,-9.7343,-9.735,-9.7357,0,0,0,0,0,0,0,0,0,0,0,0,0,-9.7156,-9.7061,-9.7325,-9.7274,-9.727,-9.7406,-9.7407,-9.7408,-9.7283,-9.7277,-9.727,-9.7264,-9.734,-9.7349,-9.7358,-9.7545,0,0,-9.7386,-9.739,0,0,0,0,0,0,0,0,-9.7151,-9.7166,-9.728,-9.7278,-9.7274,-9.7327,-9.7339,-9.7454,-9.7285,-9.7278,-9.7269,-9.7261,-9.7344,-9.7352,-9.7381,-9.7548,-9.7552,-9.7387,-9.7392,-9.7396,-9.7399,0,0,0,0,0,0,0,-9.7144,-9.7162,-9.7356,-9.7282,-9.7278,-9.7244,-9.7252,-9.736,-9.7346,-9.7278,-9.7269,-9.7281,-9.734,-9.7373,-9.7382,-9.7553,-9.7387,-9.7395,-9.74,-9.7404,-9.7876,-9.7883,0,0,0,0,0,0,-9.7144,-9.7157,-9.7354,-9.7359,-9.7195,-9.7255,-9.7263,-9.7316,-9.7345,-9.7343,-9.7286,-9.7275,-9.7361,-9.7372,-9.7384,-9.7605,-9.7396,-9.7405,-9.741,-9.7869,-9.7878,-9.7885,0,0,0,0,0,0,-9.7138,-9.7163,-9.7351,-9.7256,-9.7277,-9.7266,-9.7327,-9.7321,-9.7354,-9.7351,-9.7347,-9.7323,-9.7356,-9.7372,-9.7506,-9.7605,-9.7409,-9.7417,-9.7861,-9.7872,-9.7882,-9.8047,0,0,0,0,0,0,-9.7131,-9.7161,-9.7234,-9.7258,-9.7283,-9.7474,-9.7333,-9.7328,-9.7371,-9.7356,-9.7384,-9.7382,-9.7352,-9.7493,-9.7515,-9.7614,-9.7424,-9.7852,-9.7866,-9.7878,-9.8033,-9.8062,-9.8087,0,0,0,0,0,-9.7122,-9.7276,-9.7238,-9.7263,-9.7374,-9.748,-9.7493,-9.7458,-9.7379,-9.7451,-9.7449,-9.7381,-9.7591,-9.7508,-9.7532,-9.7635,-9.7845,-9.7862,-9.7877,-9.802,-9.8056,-9.8086,0,0,0,0,0,0,-9.726,-9.7278,-9.7237,-9.7404,-9.7442,-9.7459,-9.7548,-9.7497,-9.7556,-9.7539,-9.749,-9.7497,-9.7642,-9.7652,-9.7559,-9.7817,-9.7705,-9.7726,-9.7806,-9.784,-9.7866,-9.7861,-9.7432,0,0,0,0,0,-9.7311,-9.7399,-9.7408,-9.7554,-9.7575,-9.7559,-9.7604,-9.7573,-9.7609,-9.7624,-9.7632,-9.7668,-9.7741,-9.7791,-9.7859,-9.8033,-9.8037,-9.8116,-9.8143,-9.8166,-9.8185,-9.8277,-9.8312,-9.7938,-9.7938,-9.7937,0,0,-9.7415,-9.7435,-9.7493,-9.7582,-9.7608,-9.7698,-9.7573,-9.7673,-9.7738,-9.7638,-9.7767,-9.7774,-9.781,-9.7966,-9.8035,-9.7979,-9.8289,-9.8186,-9.8204,-9.8211,-9.8297,-9.8332,-9.8364,-9.7949,-9.7947,-9.7945,0,0,-9.765,-9.7676,-9.78,-9.7829,-9.7871,-9.7859,-9.7889,-9.7914,-9.7916,-9.8045,-9.7972,-9.8047,-9.8176,-9.8205,-9.8236,-9.8484,-9.8423,-9.8507,-9.8649,-9.874,-9.8769,-9.8795,-9.8883,-9.8915,-9.8526,-9.8526,-9.8527,0,-9.7774,-9.7908,-9.787,-9.7976,-9.8016,-9.7933,-9.8057,-9.8086,-9.8147,-9.8176,-9.8113,-9.8273,-9.8291,-9.8452,-9.8513,-9.8542,-9.8573,-9.8503,-9.8769,-9.8794,-9.8818,-9.8901,-9.8934,-9.8536,-9.8535,-9.8534,-9.8533,0,-9.8058,-9.8152,-9.8247,-9.8311,-9.8362,-9.8477,-9.8454,-9.851,-9.8475,-9.8469,-9.86,-9.862,-9.869,-9.8726,-9.8692,-9.8883,-9.8846,-9.8777,-9.8663,-9.8864,-9.8941,-9.8972,-9.855,-9.8547,-9.8544,-9.8541,0,0,-9.8382,-9.8425,-9.846,-9.8488,-9.8528,-9.8599,-9.8709,-9.878,-9.8829,-9.8873,-9.8963,-9.9074,-9.9011,-9.9047,-9.9015,-9.9095,-9.9289,-9.9015,-9.9015,-9.9065,-9.9499,-9.9551,-9.9589,-9.9249,-9.9255,-9.926,-9.9496,0,-9.8616,-9.8809,-9.8778,-9.8964,-9.905,-9.8972,-9.9067,-9.9101,-9.9099,-9.9169,-9.9164,-9.9245,-9.9155,-9.9176,-9.9251,-9.9249,-9.9375,-9.9232,-9.933,-9.9334,-9.9323,-9.9629,-9.9684,-9.9906,-9.9526,-9.9531,-9.9535,0,-9.8915,-9.8975,-9.917,-9.9197,-9.9232,-9.9319,-9.9382,-9.9451,-9.9486,-9.9479,-9.952,-9.9474,-9.9581,-9.9466,-9.9612,-9.9516,-9.9554,-9.9559,-9.9567,-9.9574,-9.9446,-9.9644,-9.9976,-10.0009,-9.9582,-9.9578,-9.9574,0,-9.9132,-9.926,-9.9393,-9.942,-9.9455,-9.9518,-9.9535,-9.9564,-9.9609,-9.9663,-9.9692,-9.9757,-9.9792,-9.9843,-9.9814,-9.9733,-9.9965,-9.9848,-9.996,-9.9961,-10.0011,-10.0009,-10.0354,-10.0038,-10.0037,-10.0037,-10.0036,0,-9.9397,-9.9519,-9.9491,-9.9574,-9.9708,-9.967,-9.9803,-9.981,-9.9837,-9.9917,-9.9853,-9.9929,-9.9887,-9.9959,-9.9937,-10.0061,-10.0077,-10.0073,-10.0065,-10.0079,-10.0079,-10.0102,-10.0086,-10.0045,-10.0043,-10.0042,-10.004,0,-9.9661,-9.9648,-9.9788,-9.9811,-9.9819,-9.9917,-9.9935,-10.001,-10.0003,-10.0106,-10.0127,-10.0116,-10.0198,-10.0174,-10.0262,-10.0247,-10.0404,-10.0377,-10.0393,-10.0386,-10.0499,-10.0489,-10.0871,-10.0919,-10.0573,-10.0576,-10.0579,0,-9.9831,-9.9924,-9.9958,-10.0008,-10.0031,-10.0113,-10.0159,-10.0125,-10.0175,-10.0224,-10.0293,-10.037,-10.0429,-10.0563,-10.0561,-10.0627,-10.0601,-10.0731,-10.061,-10.0621,-10.0602,-10.0597,-10.0606,-10.0754,-10.0758,-10.0761,-10.0764,0,-10.0134,-10.0123,-10.0194,-10.0263,-10.0321,-10.0373,-10.0418,-10.0462,-10.0431,-10.049,-10.0575,-10.0621,-10.0712,-10.0789,-10.085,-10.0863,-10.0809,-10.0802,-10.0831,-10.0845,-10.0851,-10.0849,-10.0458,-10.0793,-10.079,-10.0788,-10.0787,-10.0785,-10.0355,-10.0435,-10.0471,-10.0552,-10.0583,-10.0628,-10.07,-10.0703,-10.0774,-10.0847,-10.0821,-10.0918,-10.095,-10.1027,-10.1049,-10.1122,-10.1073,-10.1115,-10.1126,-10.1137,-10.1151,-10.084,-10.1133,-10.1132,-10.1132,-10.1131,-10.113,0,-10.0654,-10.0675,-10.075,-10.0817,-10.088,-10.0826,-10.0873,-10.0929,-10.1016,-10.1052,-10.1113,-10.1209,-10.1283,-10.1288,-10.1356,-10.1414,-10.139,-10.1433,-10.1428,-10.1432,-10.1192,-10.116,-10.1451,-10.1451,-10.1451,-10.1451,-10.1451,-10.1451,-10.0818,-10.0948,-10.0942,-10.1087,-10.1105,-10.1201,-10.1233,-10.1273,-10.1302,-10.1413,-10.1476,-10.1479,-10.1502,-10.1572,-10.1636,-10.1635,-10.1663,-10.1715,-10.1705,-10.1481,-10.1449,-10.1418,-10.1388,-10.1722,-10.1722,-10.1938,-10.1941,-10.1942]}]]